Vertical_Velocity
3 -7 -1 -1 -6 -1 6 -3 24 -36 1 -8 -4 16 -8 -14 -9 -5 11 23 2 2 3 -2 3 1 2 1 2 1 4 1 -1 1 4 -3 -2 -8 -4 -5 5 12 5 15
-7 -0 5 -2 -11 1 -3 -8 -2 10 -17 7 0 -13 8 -18 -15 4 -21 -11 8 11 -1 -5 4 -0 -1 -0 1 0 2 5 3 4 4 5 0 1 2 8 10 9 14 10
-6 -3 -8 -11 1 4 -3 -5 5 4 -11 -15 3 4 -5 7 18 -8 -23 23 2 -11 5 -6 -3 -4 -3 -3 1 1 2 2 5 1 2 6 -3 -6 3 -3 5 6 6 1
-9 -4 1 5 12 -0 -3 4 4 9 10 5 -12 3 -4 8 27 -5 5 12 -1 -13 3 -9 -0 -2 -0 1 1 3 -1 2 1 5 2 2 6 4 10 3 4 9 7 6
-3 2 -15 -31 24 3 11 -23 -12 6 -0 6 9 8 13 -2 -4 -4 3 -4 1 18 -3 -14 -1 -0 -1 -0 1 2 1 -1 4 3 5 6 1 2 -2 1 -2 -0 0 -2
7 9 1 -6 -25 14 10 -38 40 -8 -4 5 -22 12 16 -1 -4 -5 13 -1 -1 14 -17 -0 -0 -0 -1 -1 0 1 0 1 3 4 3 1 -0 1 1 1 2 -1 2 -2
-1 4 -16 -4 18 3 4 -29 -24 1 -2 -5 -23 13 -2 10 12 14 0 -1 8 -2 -17 4 -2 -2 -1 -0 -1 -0 0 2 3 3 5 2 5 -0 2 1 5 -4 -1 -4
-0 6 -14 15 -14 21 14 -15 10 -4 1 -6 6 -22 -19 1 16 2 2 -2 12 -21 3 -3 0 -1 -1 -1 -2 -1 1 3 3 2 5 3 6 2 2 1 -1 -4 4 -2
9 -23 -9 -17 8 10 -3 1 -10 -0 3 1 4 4 4 -18 -5 -15 7 3 -7 -0 -3 -1 1 -1 -1 -1 -2 -1 2 4 4 2 4 2 2 -1 -1 -1 -1 -2 4 2
8 -8 -2 -10 10 3 -1 1 3 8 4 5 1 8 8 -10 11 8 7 -3 3 0 0 -0 0 -1 -0 -0 -1 0 2 2 4 4 2 -3 1 -0 3 4 4 1 0 2
-9 3 -7 -10 1 -7 -3 5 -0 7 3 -0 3 -1 3 -1 2 9 0 3 -0 -0 0 -0 -0 -1 -0 1 1 1 4 5 5 1 -4 -1 -0 1 0 2 1 2 1 2
-8 -7 6 -2 5 5 3 -6 5 -1 -2 2 1 -0 0 -4 26 -1 8 -2 -1 1 -0 0 1 1 1 1 1 3 4 2 -1 -1 1 0 0 -0 -0 0 2 1 -2 -3
-2 -5 2 -5 4 -0 -4 -6 7 -8 -3 1 3 9 -0 -2 4 -1 2 2 1 0 1 1 0 2 1 1 2 4 -3 -3 0 2 2 0 0 1 -2 0 0 -1 1 0
2 -8 2 9 -9 -6 -2 4 -1 -12 -2 -4 -0 4 -1 2 3 4 1 0 1 1 1 0 0 1 2 4 -3 -4 -0 2 2 1 0 0 -1 -1 -1 -1 -1 0 0 -1
5 -0 -0 0 3 4 0 6 2 -9 -5 -4 -3 -3 0 3 1 -0 0 2 1 2 2 0 0 2 3 -4 -2 1 1 1 0 0 -1 -1 -0 0 1 -1 -2 -2 1 2
3 0 2 -0 -2 2 -2 -1 1 -5 -7 2 2 3 3 2 2 2 1 0 0 2 -0 1 5 1 -5 0 1 -0 -0 -0 0 0 -0 -0 -1 -1 -1 -4 -1 0 -1 -3
0 6 0 -1 2 5 -9 1 2 1 -5 -2 -0 -0 -1 0 1 1 2 1 1 0 3 1 -1 0 1 -2 -1 0 1 -0 -0 1 0 -2 -1 -0 -1 0 -2 0 1 -1
-1 0 -2 0 0 -1 -5 1 3 1 -0 -1 -2 -0 1 1 2 2 -0 -2 2 5 -1 -1 0 -0 0 -0 0 1 -1 -0 -1 -3 -4 -0 -1 -3 -0 3 -0 -3 -4 -2
-0 -0 -3 -1 -0 -0 -1 0 1 3 2 2 -2 -1 -0 1 0 -1 -2 2 0 -1 -1 -2 -1 -0 -1 -0 -1 -1 -1 -1 -3 -3 -2 -0 1 1 -1 -5 -5 -3 -2 -3
-1 -1 -3 -1 1 1 -1 -0 -2 3 2 -2 1 -0 -3 -3 1 2 -2 -2 -1 1 -2 -1 -1 -1 -1 -1 1 1 -4 -5 3 4 -3 1 1 -4 -4 -2 -1 -4 -5 -4
-3 -3 -2 -1 1 2 -0 -1 -3 -3 0 3 2 -1 1 -1 -1 -2 -1 4 0 -1 -1 -1 -1 0 0 -1 -2 -1 2 2 -1 -1 -1 -2 -3 -0 0 -6 -3 -2 -4 -3
-1 -2 -1 -2 -1 1 2 -0 -3 -1 -3 -2 -1 1 0 -1 -1 -1 -1 0 0 -1 -0 0 -1 -1 -0 1 2 1 1 -2 -3 -3 -3 -2 -1 0 -2 -6 -1 -1 -2 -5
1 0 -0 -1 -1 -0 0 0 -1 -0 -0 -1 -1 0 -1 -1 -3 -1 1 -0 -1 0 0 0 1 1 -1 -1 -1 -0 -1 -3 -1 -1 -2 -3 -0 -4 -1 2 -3 -1 -3 -3
0 0 0 -1 -1 -0 -1 -1 -0 -0 0 1 1 -0 -3 -1 0 -4 -1 1 -1 -2 -3 -0 1 -0 -0 3 0 -3 -4 -3 -2 -2 -2 1 -1 -2 -2 -0 -2 -3 -3 -2
0 0 -0 -0 1 1 -1 -1 -1 -1 -1 -0 0 -1 -1 0 -6 -1 -2 -0 -0 -2 -1 1 1 -0 -0 -3 -3 -2 -2 -2 -2 -2 3 -2 -2 -3 -4 -1 -2 -4 -3 -3
-0 0 -0 -0 -0 -1 -1 -0 -0 -1 -1 -3 -1 0 -1 -1 -1 -1 0 -1 -1 0 -1 -1 -1 -1 -4 -3 -0 -1 -1 -1 -0 -0 -2 -1 -4 -4 -3 -1 -2 -2 -3 -3
0 0 -0 -0 -1 -0 -0 -1 -0 -0 -1 -0 -2 -1 -0 -0 -2 -2 -1 -0 1 -1 -2 -1 -0 -1 -4 -2 -1 -1 -3 1 1 -2 -4 -3 -5 -3 -2 -1 -2 -3 -3 -2
Height
3126 3123 3119 3114 3110 3107 3106 3102 3100 3085 3079 3079 3075 3070 3065 3061 3059 3055 3050 3046 3043 3040 3035 3032 3024 3016 3011 3005 2999 2995 2992 2990 2989 2986 2986 2985 2984 2983 2978 2976 2974 2969 2970 2971
3117 3117 3113 3106 3103 3098 3097 3093 3087 3082 3073 3073 3069 3065 3060 3056 3052 3049 3042 3042 3039 3035 3032 3028 3020 3012 3007 3002 2997 2991 2988 2985 2985 2984 2983 2981 2980 2978 2975 2972 2971 2969 2968 2968
3110 3111 3107 3098 3094 3092 3090 3087 3082 3073 3068 3065 3061 3058 3054 3051 3048 3041 3038 3038 3033 3031 3029 3024 3016 3009 3005 3000 2994 2989 2984 2981 2980 2979 2978 2977 2978 2977 2973 2972 2971 2969 2967 2967
3111 3109 3102 3094 3091 3088 3083 3078 3075 3068 3063 3059 3055 3051 3048 3045 3038 3036 3036 3033 3027 3028 3025 3020 3012 3006 3002 2997 2990 2985 2982 2977 2977 2975 2974 2974 2973 2971 2970 2969 2969 2967 2965 2963
3112 3106 3095 3088 3088 3085 3080 3068 3070 3062 3057 3053 3050 3046 3043 3037 3032 3031 3030 3028 3027 3024 3019 3013 3008 3003 2998 2993 2987 2982 2979 2976 2973 2973 2972 2971 2970 2970 2968 2966 2966 2964 2962 2960
3108 3107 3096 3087 3084 3080 3073 3058 3064 3056 3051 3043 3039 3037 3038 3032 3028 3025 3026 3024 3023 3018 3012 3007 3004 3000 2995 2989 2983 2979 2977 2974 2972 2970 2969 2968 2967 2965 2963 2962 2961 2960 2958 2957
3103 3101 3090 3083 3081 3074 3068 3058 3049 3046 3040 3035 3031 3027 3023 3019 3021 3024 3022 3020 3016 3010 3005 3003 3000 2997 2992 2986 2981 2978 2976 2973 2971 2969 2968 2966 2964 2964 2962 2960 2959 2958 2956 2956
3097 3096 3088 3080 3071 3073 3060 3044 3037 3028 3021 3016 3012 3012 3012 3012 3013 3016 3016 3014 3008 3002 3002 2998 2995 2993 2989 2984 2980 2977 2974 2972 2970 2969 2967 2965 2965 2963 2961 2959 2959 2958 2957 2956
3098 3088 3080 3076 3068 3059 3049 3033 3019 3009 2999 2995 2992 2995 2999 3002 3005 3008 3011 3005 3000 3000 2998 2994 2991 2989 2986 2981 2978 2975 2974 2972 2971 2969 2966 2965 2963 2963 2963 2962 2961 2959 2958 2956
3088 3080 3076 3066 3058 3048 3035 3019 3003 2991 2979 2974 2975 2981 2987 2994 2997 3001 2999 2997 2997 2997 2994 2991 2988 2985 2982 2979 2977 2975 2974 2972 2971 2969 2966 2964 2965 2965 2963 2961 2961 2959 2957 2955
3078 3074 3063 3058 3049 3035 3022 3010 2990 2976 2964 2961 2965 2970 2979 2988 2992 2994 2992 2994 2993 2993 2990 2988 2985 2982 2980 2978 2977 2976 2974 2973 2971 2969 2967 2967 2968 2966 2964 2962 2960 2958 2955 2952
3069 3064 3055 3046 3038 3028 3015 3000 2986 2971 2963 2962 2964 2968 2977 2985 2988 2988 2990 2991 2990 2989 2988 2985 2983 2981 2980 2979 2978 2977 2975 2973 2972 2972 2971 2970 2968 2966 2965 2962 2959 2956 2952 2948
3063 3057 3050 3043 3035 3027 3015 3001 2991 2978 2967 2967 2968 2974 2980 2983 2986 2987 2988 2987 2987 2987 2986 2984 2982 2981 2981 2980 2979 2977 2976 2976 2976 2974 2973 2972 2970 2968 2965 2961 2958 2954 2949 2946
3058 3049 3048 3042 3032 3024 3013 3006 2996 2987 2978 2975 2978 2982 2984 2986 2987 2987 2986 2987 2986 2985 2984 2984 2983 2982 2982 2982 2980 2979 2980 2979 2978 2977 2974 2973 2970 2967 2963 2959 2955 2953 2950 2947
3054 3045 3039 3035 3030 3024 3016 3010 3002 2995 2989 2988 2988 2988 2988 2987 2987 2987 2987 2987 2986 2985 2984 2984 2984 2984 2984 2982 2983 2984 2983 2982 2980 2978 2976 2973 2970 2966 2963 2960 2958 2954 2950 2946
3050 3043 3037 3034 3029 3024 3017 3011 3007 3001 2997 2995 2993 2991 2990 2990 2989 2988 2987 2987 2986 2986 2986 2986 2987 2987 2986 2987 2987 2987 2985 2984 2982 2981 2978 2975 2971 2968 2966 2962 2957 2953 2948 2943
3044 3038 3033 3030 3026 3023 3017 3011 3008 3005 3002 2999 2998 2995 2994 2992 2991 2989 2988 2988 2988 2989 2989 2990 2991 2991 2992 2992 2991 2990 2988 2987 2985 2983 2980 2976 2973 2970 2965 2960 2956 2953 2948 2944
3040 3034 3030 3028 3025 3021 3016 3012 3008 3006 3004 3001 2998 2996 2995 2993 2992 2991 2991 2992 2993 2993 2994 2995 2996 2996 2996 2996 2994 2994 2992 2991 2988 2985 2982 2978 2974 2969 2966 2962 2958 2955 2952 2949
3037 3031 3027 3023 3020 3017 3014 3011 3007 3004 3002 3000 2999 2998 2997 2997 2996 2996 2996 2997 2998 2999 3000 3001 3001 3001 3001 3000 2999 2997 2995 2993 2990 2987 2984 2979 2974 2970 2968 2966 2963 2960 2955 2949
3034 3031 3026 3022 3018 3015 3013 3011 3006 3004 3004 3004 3003 3003 3003 3002 3001 3002 3003 3004 3004 3006 3006 3006 3006 3006 3005 3004 3001 3000 2999 2996 2992 2988 2984 2981 2978 2976 2973 2970 2965 2959 2956 2950
3035 3031 3027 3024 3021 3018 3016 3014 3012 3010 3008 3007 3008 3009 3009 3009 3008 3008 3008 3010 3010 3011 3012 3011 3011 3010 3009 3007 3006 3003 3000 2998 2995 2992 2988 2986 2983 2979 2976 2970 2966 2962 2958 2952
3036 3033 3030 3027 3025 3023 3021 3018 3016 3016 3015 3015 3013 3012 3013 3013 3013 3014 3014 3016 3016 3016 3016 3015 3014 3013 3012 3010 3008 3007 3005 3003 2999 2995 2993 2990 2986 2981 2976 2973 2969 2964 2960 2955
3036 3034 3032 3030 3028 3027 3025 3023 3022 3020 3019 3019 3018 3018 3017 3017 3017 3018 3019 3020 3021 3020 3020 3019 3019 3017 3015 3015 3014 3012 3009 3005 3002 3000 2997 2992 2988 2983 2978 2975 2971 2968 2963 2958
3035 3034 3033 3032 3030 3029 3028 3026 3025 3023 3022 3022 3021 3021 3021 3021 3022 3022 3023 3024 3025 3025 3024 3023 3023 3021 3021 3019 3017 3015 3012 3010 3008 3004 2998 2993 2989 2984 2981 2978 2975 2971 2966 2961
3035 3034 3033 3032 3031 3030 3029 3028 3027 3026 3025 3024 3024 3024 3024 3024 3025 3026 3027 3028 3028 3028 3027 3027 3026 3026 3025 3024 3022 3019 3017 3013 3009 3004 3000 2996 2992 2988 2985 2982 2978 2974 2969 2964
3035 3034 3033 3033 3032 3031 3030 3029 3029 3028 3027 3026 3026 3026 3026 3027 3027 3028 3030 3031 3031 3031 3030 3031 3030 3030 3029 3027 3025 3022 3019 3016 3011 3007 3004 3000 2996 2992 2989 2985 2981 2976 2972 2967
3034 3034 3033 3032 3032 3031 3031 3030 3030 3030 3029 3028 3028 3028 3028 3029 3030 3030 3031 3032 3033 3033 3033 3034 3033 3033 3032 3030 3027 3024 3021 3017 3014 3011 3008 3004 3000 2996 2992 2988 2983 2979 2974 2970